AirNav   TITAN Aviation Fuels
 
 462 users online  

E77 San Manuel Airport
San Manuel, Arizona, USA

GOING TO SAN MANUEL?


FAA INFORMATION EFFECTIVE 16 JUNE 2022

Location

FAA Identifier: E77
Lat/Long: 32-38-11.1850N 110-38-50.2356W
32-38.186417N 110-38.837260W
32.6364403,-110.6472877
(estimated)
Elevation: 3271.8 ft. / 997.2 m (surveyed)
Variation: 12E (1985)
From city: 2 miles NW of SAN MANUEL, AZ
Time zone: UTC -7 (year round; does not observe DST)
Zip code: 85631

Airport Operations

Airport use: Open to the public
Control tower: no
ARTCC: ALBUQUERQUE CENTER
FSS: PRESCOTT FLIGHT SERVICE STATION
NOTAMs facility: PRC (NOTAM-D service available)
Attendance: UNATNDD
Wind indicator: lighted
Segmented circle: yes
Lights: ACTVT PAPI RWY 11 & 29; MIRL RWY 11/29 - CTAF.
Beacon: white-green (lighted land airport)
Operates sunset to sunrise.

Airport Communications

CTAF: 122.9
WX AWOS-3PT: 134.125 (520-385-4238)

Airport Services

Fuel available: 100LL
100LL:FUEL 24 HR CREDIT CARD SVC AVBL EXCEPT AMERICAN EXPRESS.
Parking: tiedowns
Airframe service: NONE
Powerplant service: NONE
Bottled oxygen: NONE
Bulk oxygen: NONE

Runway Information

Runway 11/29

Dimensions: 4207 x 75 ft. / 1282 x 23 m
Surface: asphalt, in good condition
Weight bearing capacity: 
Single wheel: 12.0
Runway edge lights: medium intensity
RUNWAY 11  RUNWAY 29
Latitude: 32-38.379762N32-37.993072N
Longitude: 110-39.177553W110-38.496965W
Elevation: 3271.7 ft.3250.3 ft.
Traffic pattern: leftright
Markings: basic, in good conditionbasic, in good condition
Visual slope indicator: 2-light PAPI on left (3.00 degrees glide path)2-light PAPI on right (3.00 degrees glide path)
Runway end identifier lights: nono
Touchdown point: yes, no lightsyes, no lights
Obstructions: 8 ft. brush, 308 ft. from runway, 100 ft. right of centerline, 13:1 slope to clear4 ft. brush, 201 ft. from runway, 100 ft. left of centerline
RWY 29 3-6 FT SCATTERED BRUSH 0-200 FT FM THLD, 90-125 FT LEFT OF CNTRLN; 3-5 FT BRUSH 50-200 FT FM THLD, 50-70 FT RIGHT OF CNTRLN.

Airport Ownership and Management from official FAA records

Ownership: Publicly-owned
Owner: PINAL COUNTY
REDINGTON ROAD
SAN MANUEL, AZ 85631
Phone 520-385-3241
Manager: JIM PETTY
PO BOX 727
FLORENCE, AZ 85132
Phone 520-866-6545
EMERGENCY PHONE 800-420-8689 (SHERIFF'S OFFICE)

Airport Operational Statistics

Aircraft based on the field: 16
Single engine airplanes: 15
Helicopters: 1
    
Aircraft operations: avg 39/day *
84% local general aviation
14% transient general aviation
2% military
* for 12-month period ending 01 April 2020

Additional Remarks

RY 11 HAS 6 FT GULLY 300 FT FM THLD.
RY 29 HAS 6 FT SLOPED DROP OFF 90 FT R OF CNTRLN 165 FT FM THLD EXTENDING OUT TO 325 FT FM THLD.
RY 11/29 SCATTERED 2-4 FT BRUSH IN PRIMARY SURFACE 45-75 FT FROM CNTRLN.
RISING TERRAIN WEST OF AIRPORT., +60 FT.-75 FT. HILL 500 FT. TO 1000 FT. FROM E.O.R., 350 FT - 500 FT RIGHT OF CENTERLINE.
A.W.O.S. FREQ: 134.125, LAND LINE 520-385-4238.
FOR CD CTC ALBUQUERQUE ARTCC AT 505-856-4861.

Instrument Procedures

There are no published instrument procedures at E77.

Some nearby airports with instrument procedures:

KDMA - Davis Monthan Air Force Base (31 nm SW)
KAVQ - Marana Regional Airport (32 nm SW)
KTUS - Tucson International Airport (35 nm SW)
KRYN - Ryan Field Airport (40 nm SW)
P13 - San Carlos Apache Airport (43 nm N)
 
Loc | Ops | Rwys | IFR | FBO | Links
Com | Nav | Svcs | Stats | Notes
Area around E77 (San Manuel Airport)
 
Road maps at: MapQuest Bing Google
 
Aerial photo
WARNING: Photo may not be current or correct
Aerial photo of E77 (San Manuel Airport)
Photo by Chris Olen
Photo taken 24-Jun-2004
shot from around 1,200' AGL

Do you have a better or more recent aerial photo of San Manuel Airport that you would like to share? If so, please send us your photo.

 
Sectional chart

 
Airport distance calculator
Flying to San Manuel Airport? Find the distance to fly.

From to E77

Sunrise and sunset
Times for 29-Jun-2022
 Local
(UTC-7)
 Zulu
(UTC)
Morning civil twilight04:5011:50
Sunrise05:1912:19
Sunset19:3302:33
Evening civil twilight20:0203:02

Current date and time
Zulu (UTC)  29-Jun-2022 08:30:09
Local (UTC-7)  29-Jun-2022 01:30:09
 
METAR
KDMA 
30nm S 
290758Z AUTO 12010KT 10SM SCT100 29/14 A3004 RMK AO2 SLP123 T02920142 $
KAVQ 
32nm SW 
290815Z AUTO 12010KT 10SM CLR 32/13 A2999 RMK AO2 T03190132
KTUS 
34nm SW 
290753Z 11006KT 10SM FEW110 30/15 A3007 RMK AO2 SLP128 T03000150
KMZJ 
35nm W 
290810Z AUTO 15007KT 10SM SCT095 30/16 A3001 RMK AO2
KRYN 
40nm SW 
282345Z 04005KT 10SM CLR 37/11 A2996
KP08 
43nm NW 
290810Z AUTO 15005KT 10SM CLR 32/17 A2995 RMK AO2
TAF
KDMA 
30nm S 
290605Z 2906/3012 14009KT 9999 SCT090 QNH3005INS BECMG 2916/2917 18009KT 9999 SCT100 QNH3008INS BECMG 2919/2920 18009KT 9999 VCTS BKN090CB QNH2999INS TEMPO 2921/3002 VRB25G35KT 9000 -TSRA BECMG 3002/3003 18009KT 9999 NSW SCT090 QNH3004INS TX37/2920Z TN24/2911Z
KTUS 
34nm SW 
281720Z 2818/2918 11006KT P6SM SCT250 FM282100 09005KT P6SM VCTS BKN100CB FM290300 15006KT P6SM VCSH SCT100 FM290600 13006KT P6SM SCT100
NOTAMs
Click for the latest NOTAMs
NOTAMs are issued by the DoD/FAA and will open in a separate window not controlled by AirNav.

 

 
 

FBO, Fuel Providers, and Aircraft Ground Support

  
 Business Name 
 
 Contact 
 
 Services / Description 
 
Fuel Prices
 
Comments
  
San Manuel-Ray Blair Airport 520-866-6545
[email]
Aviation fuel, Aircraft parking (ramp or tiedown), Hangar leasing / sales

More info about San Manuel-Ray Blair Airport
independent
100LL
SS $6.19 
 Updated 24-Jun-2022
 
   1 read write
SS=Self service
Update Fuel Prices
 

Would you like to see your business listed on this page?

 If your business provides an interesting product or service to pilots, flight crews, aircraft, or users of the San Manuel Airport, you should consider listing it here.  To start the listing process, click on the button below
 
Add a business
 

Other Pages about San Manuel Airport

Update a link
 
Copyright © AirNav, LLC. All rights reserved. Privacy Policy  Contact